EW8515 Weather Reports


Display with metric or nautical units.
time (UTC)temp
F
wind
direction
speed
MPH
gust
MPH
rain 1hr
in
rain 24hr
in
rain mn
in
humidity
%
barometer
mb
20181015231354 40 328 3.0 7.0 0.00 0.00 0.00 84 1022.5
20181015230853 40 224 3.0 7.0 0.00 0.00 0.00 84 1022.3
20181015230352 40 271 3.0 8.0 0.00 0.00 0.00 85 1022.5
20181015225852 40 295 3.0 8.0 0.00 0.00 0.00 83 1022.3
20181015225351 40 321 3.0 7.0 0.00 0.00 0.00 84 1022.5
20181015224850 40 294 2.0 7.0 0.00 0.00 0.00 83 1022.3
20181015224348 40 260 2.0 4.0 0.00 0.00 0.00 84 1022.3
20181015223847 40 249 2.0 6.0 0.00 0.00 0.00 83 1022.3
20181015223348 40 349 2.0 6.0 0.00 0.00 0.00 83 1022.3
20181015222848 41 293 3.0 6.0 0.00 0.00 0.00 82 1022.3
20181015222316 41 0 3.0 7.0 0.00 0.00 0.00 83 1022.5
20181015221755 41 248 3.0 7.0 0.00 0.00 0.00 83 1022.3
20181015221255 41 325 3.0 7.0 0.00 0.00 0.00 84 1022.3
20181015220751 40 281 2.0 7.0 0.00 0.00 0.00 83 1022.3
20181015220250 40 278 2.0 7.0 0.00 0.00 0.00 84 1022.3
20181015215744 40 265 3.0 5.0 0.00 0.00 0.00 82 1022.3
20181015215232 41 276 3.0 5.0 0.00 0.00 0.00 84 1022.3
20181015214731 40 277 3.0 8.0 0.00 0.00 0.00 84 1022.5
20181015214232 40 315 3.0 8.0 0.00 0.00 0.00 84 1022.5
20181015213731 40 298 3.0 6.0 0.00 0.00 0.00 83 1022.5
20181015213227 40 328 2.0 5.0 0.00 0.00 0.00 85 1022.3
20181015212725 40 282 2.0 5.0 0.00 0.00 0.00 85 1022.5
20181015212223 40 319 2.0 5.0 0.00 0.00 0.00 83 1022.6
20181015211719 40 312 2.0 5.0 0.00 0.00 0.00 84 1022.6
20181015211220 40 327 3.0 5.0 0.00 0.00 0.00 84 1022.5
20181015210716 40 329 2.0 5.0 0.00 0.00 0.00 84 1022.5
20181015210215 40 302 2.0 4.0 0.00 0.00 0.00 85 1022.5
20181015205711 40 305 2.0 5.0 0.00 0.00 0.00 84 1022.5
20181015205207 40 273 3.0 6.0 0.00 0.00 0.00 85 1022.5
20181015204706 40 324 3.0 7.0 0.00 0.00 0.00 84 1022.5
20181015204204 40 335 3.0 7.0 0.00 0.00 0.00 84 1022.5
20181015203703 40 309 3.0 6.0 0.00 0.00 0.00 83 1022.5
20181015203204 40 313 3.0 8.0 0.00 0.00 0.00 82 1022.3
20181015202703 41 278 3.0 8.0 0.00 0.00 0.00 82 1022.3
20181015202202 41 226 3.0 6.0 0.00 0.00 0.00 82 1022.2
20181015201703 42 295 3.0 8.0 0.00 0.00 0.00 82 1022.2
20181015201201 41 331 3.0 8.0 0.00 0.00 0.00 83 1022.3
20181015200702 41 275 3.0 6.0 0.00 0.00 0.00 82 1022.2
20181015200153 41 315 2.0 5.0 0.00 0.00 0.00 84 1022.1
20181015195651 41 302 2.0 5.0 0.00 0.00 0.00 84 1022.2
20181015195151 40 291 2.0 7.0 0.00 0.00 0.00 85 1022.2
20181015194652 40 288 2.0 7.0 0.00 0.00 0.00 84 1022.3
20181015194150 40 338 2.0 4.0 0.00 0.00 0.00 86 1022.5
20181015193649 40 250 2.0 5.0 0.00 0.00 0.00 84 1022.5
20181015193147 40 308 3.0 6.0 0.00 0.00 0.00 84 1022.5
20181015192633 40 261 3.0 8.0 0.00 0.00 0.00 83 1022.6
20181015192131 40 329 4.0 9.0 0.00 0.00 0.00 84 1022.6
20181015191627 40 271 3.0 9.0 0.00 0.00 0.00 83 1022.6
20181015191126 40 355 3.0 9.0 0.00 0.00 0.00 83 1022.7
20181015190623 41 311 4.0 9.0 0.00 0.00 0.00 82 1022.7
20181015190121 42 317 3.0 7.0 0.00 0.00 0.00 84 1022.6
20181015185621 41 242 4.0 9.0 0.00 0.00 0.00 84 1022.6
20181015185121 41 317 4.0 9.0 0.00 0.00 0.00 82 1022.7
20181015184621 41 279 4.0 9.0 0.00 0.00 0.00 83 1022.6
20181015184122 41 294 4.0 9.0 0.00 0.00 0.00 83 1022.6
20181015183621 42 286 3.0 9.0 0.00 0.00 0.00 83 1022.7
20181015183049 41 302 3.0 7.0 0.00 0.00 0.00 84 1022.7
20181015182539 41 311 3.0 7.0 0.00 0.00 0.00 85 1022.7
20181015182039 40 317 3.0 6.0 0.00 0.00 0.00 84 1022.8
20181015181539 41 272 3.0 6.0 0.00 0.00 0.00 86 1022.8
20181015181039 40 322 3.0 5.0 0.00 0.00 0.00 85 1023.0
20181015180540 40 326 3.0 7.0 0.00 0.00 0.00 89 1023.1
20181015180039 39 288 2.0 7.0 0.00 0.00 0.00 90 1023.1
20181015175539 38 309 2.0 3.0 0.00 0.00 0.00 90 1023.2
20181015175027 37 317 2.0 3.0 0.00 0.00 0.00 90 1023.5
20181015174513 37 288 2.0 5.0 0.00 0.00 0.00 90 1023.6
20181015174000 37 329 2.0 6.0 0.00 0.00 0.00 90 1023.6
20181015173501 37 332 3.0 6.0 0.00 0.00 0.00 90 1023.5
20181015173001 37 346 3.0 6.0 0.00 0.00 0.00 91 1023.5
20181015172433 37 300 3.0 7.0 0.00 0.00 0.00 91 1023.3
20181015171930 36 306 3.0 7.0 0.00 0.00 0.00 90 1023.3
20181015171428 37 324 3.0 6.0 0.00 0.00 0.00 90 1023.2
20181015170917 37 325 3.0 5.0 0.00 0.00 0.00 91 1023.2
20181015170417 37 222 3.0 5.0 0.00 0.00 0.00 90 1023.2
20181015165915 37 302 2.0 4.0 0.00 0.00 0.00 90 1023.2
20181015165414 38 324 2.0 5.0 0.00 0.00 0.00 91 1023.1
20181015164910 38 345 3.0 5.0 0.00 0.00 0.00 91 1023.2
20181015164407 38 316 2.0 5.0 0.00 0.00 0.00 91 1023.1
20181015163907 38 311 2.0 5.0 0.00 0.00 0.00 91 1023.2
20181015163409 37 322 2.0 5.0 0.00 0.00 0.00 91 1023.1
20181015162907 37 355 3.0 5.0 0.00 0.00 0.00 91 1023.0
20181015162346 37 300 3.0 5.0 0.00 0.00 0.00 91 1023.1
20181015161842 37 318 3.0 5.0 0.00 0.00 0.00 92 1023.0
20181015161342 37 319 2.0 5.0 0.00 0.00 0.00 92 1023.0
20181015160842 37 322 1.0 4.0 0.00 0.00 0.00 92 1023.0
20181015160335 37 317 1.0 3.0 0.00 0.00 0.00 92 1022.7
20181015155834 37 317 1.0 3.0 0.00 0.00 0.00 92 1022.8
20181015155324 37 317 1.0 3.0 0.00 0.00 0.00 92 1022.8
20181015154819 37 317 1.0 3.0 0.00 0.00 0.00 92 1022.8
20181015154315 37 317 2.0 3.0 0.00 0.00 0.00 92 1022.8
20181015153810 37 315 2.0 4.0 0.00 0.00 0.00 92 1022.8
20181015153311 37 315 1.0 4.0 0.00 0.00 0.00 92 1022.7
20181015152811 37 315 1.0 4.0 0.00 0.00 0.00 92 1022.7
20181015152306 37 315 2.0 3.0 0.00 0.00 0.00 92 1022.7
20181015151808 37 315 2.0 3.0 0.00 0.00 0.00 92 1022.7
20181015151259 37 315 1.0 3.0 0.00 0.00 0.00 92 1022.7
20181015150758 37 315 2.0 3.0 0.00 0.00 0.00 92 1022.6
20181015150258 37 311 1.0 3.0 0.00 0.00 0.00 92 1022.6
20181015145755 37 312 1.0 3.0 0.00 0.00 0.00 92 1022.5
20181015145254 37 310 2.0 3.0 0.00 0.00 0.00 91 1022.3
20181015144750 38 311 2.0 3.0 0.00 0.00 0.00 92 1022.2
20181015144250 38 309 2.0 3.0 0.00 0.00 0.00 92 1022.2
20181015143751 38 347 2.0 4.0 0.00 0.00 0.00 92 1022.1
20181015143250 38 347 2.0 4.0 0.00 0.00 0.00 92 1022.1
20181015142747 38 347 1.0 4.0 0.00 0.00 0.00 91 1021.8
20181015142248 38 347 1.0 3.0 0.00 0.00 0.00 92 1021.8
20181015141741 38 347 2.0 4.0 0.00 0.00 0.00 92 1021.7
20181015141241 38 347 1.0 4.0 0.00 0.00 0.00 92 1021.6
20181015140732 38 348 1.0 2.0 0.00 0.00 0.00 91 1021.5
20181015140228 38 348 1.0 2.0 0.00 0.00 0.00 91 1021.5
20181015135728 38 348 0.0 2.0 0.00 0.00 0.00 91 1021.4
20181015135212 38 348 1.0 3.0 0.00 0.00 0.00 91 1021.2
20181015134706 39 348 2.0 4.0 0.00 0.00 0.00 91 1021.2
20181015134153 39 348 2.0 8.0 0.00 0.00 0.00 91 1021.4
20181015133652 39 339 2.0 8.0 0.00 0.00 0.00 91 1021.4
20181015133153 40 312 1.0 6.0 0.00 0.00 0.00 92 1021.1
20181015132649 40 0 0.0 2.0 0.00 0.00 0.00 92 1021.1
20181015132151 39 0 0.0 1.0 0.00 0.00 0.00 92 1020.9
20181015131649 39 0 0.0 1.0 0.00 0.00 0.00 91 1020.7
20181015131148 39 0 0.0 1.0 0.00 0.00 0.00 91 1020.9
20181015130553 39 0 0.0 2.0 0.00 0.00 0.00 91 1021.0
20181015130047 39 0 0.0 2.0 0.00 0.00 0.00 91 1021.0
20181015125546 39 0 0.0 1.0 0.00 0.00 0.00 91 1021.0
20181015125043 39 0 0.0 1.0 0.00 0.00 0.00 91 1021.0
20181015124511 39 0 0.0 2.0 0.00 0.00 0.00 90 1021.0
20181015123958 39 0 0.0 2.0 0.00 0.00 0.00 91 1021.0
20181015123451 39 0 0.0 0.0 0.00 0.00 0.00 90 1020.7
20181015122940 40 0 0.0 0.0 0.00 0.00 0.00 90 1020.7
20181015122407 40 0 0.0 0.0 0.00 0.00 0.00 90 1020.7
20181015121852 40 0 0.0 0.0 0.00 0.00 0.00 90 1020.6
20181015121351 40 0 0.0 2.0 0.00 0.00 0.00 90 1020.6
20181015120852 40 0 1.0 2.0 0.00 0.00 0.00 90 1020.6
20181015120346 40 0 1.0 2.0 0.00 0.00 0.00 90 1020.5
20181015115849 40 0 0.0 1.0 0.00 0.00 0.00 90 1020.5
20181015115316 40 0 1.0 1.0 0.00 0.00 0.00 90 1020.5
20181015114758 40 0 1.0 2.0 0.00 0.00 0.00 90 1020.4
20181015114254 41 0 1.0 2.0 0.00 0.00 0.00 89 1020.4
20181015113747 41 0 1.0 2.0 0.00 0.00 0.00 89 1020.2
20181015113246 41 0 0.0 1.0 0.00 0.00 0.00 89 1020.2
20181015112744 41 0 0.0 0.0 0.00 0.00 0.00 89 1020.1
20181015112212 41 0 0.0 0.0 0.00 0.00 0.00 89 1020.0
20181015111657 41 0 0.0 0.0 0.00 0.00 0.00 89 1020.0
20181015111152 41 0 0.0 0.0 0.00 0.00 0.00 89 1020.0
20181015110640 41 0 0.0 0.0 0.00 0.00 0.00 89 1020.0
20181015110055 42 0 0.0 0.0 0.00 0.00 0.00 89 1020.0
20181015105555 42 0 0.0 2.0 0.00 0.00 0.00 89 1020.0
20181015105050 42 0 1.0 2.0 0.00 0.00 0.00 89 1020.1
20181015104551 42 0 1.0 2.0 0.00 0.00 0.00 89 1020.0
20181015104018 42 5 0.0 2.0 0.00 0.00 0.00 89 1020.0
20181015103446 42 5 0.0 2.0 0.00 0.00 0.00 89 1020.0
20181015102943 42 5 1.0 2.0 0.00 0.00 0.00 89 1019.9
20181015102444 43 5 1.0 4.0 0.00 0.00 0.00 88 1020.0
20181015101934 43 5 1.0 4.0 0.00 0.00 0.00 89 1020.0
20181015101421 43 24 1.0 2.0 0.00 0.00 0.00 89 1020.0
20181015100912 43 54 0.0 2.0 0.00 0.00 0.00 88 1019.8
20181015100410 43 57 0.0 0.0 0.00 0.00 0.00 88 1019.8
20181015095850 44 57 0.0 2.0 0.00 0.00 0.00 88 1019.8
20181015095336 44 57 0.0 2.0 0.00 0.00 0.00 88 1020.0
20181015094803 44 57 0.0 2.0 0.00 0.00 0.00 88 1019.9
20181015094253 44 57 0.0 2.0 0.00 0.00 0.00 88 1020.0
20181015093746 44 57 1.0 2.0 0.00 0.00 0.00 88 1019.9
20181015093246 44 57 1.0 2.0 0.00 0.00 0.00 88 1020.1
20181015092746 45 57 0.0 2.0 0.00 0.00 0.00 88 1020.1
20181015092247 45 57 1.0 2.0 0.00 0.00 0.00 88 1020.0
20181015091715 45 57 1.0 2.0 0.00 0.00 0.00 87 1020.0
20181015091144 45 57 1.0 2.0 0.00 0.00 0.00 88 1020.0
20181015090610 45 67 0.0 2.0 0.00 0.00 0.00 87 1020.0
20181015090039 45 69 0.0 2.0 0.00 0.00 0.00 87 1020.1
20181015085507 45 69 0.0 0.0 0.00 0.00 0.00 86 1020.0
20181015084934 45 69 0.0 0.0 0.00 0.00 0.00 86 1020.0
20181015084405 45 69 0.0 0.0 0.00 0.00 0.00 86 1020.0
20181015083833 45 69 0.0 0.0 0.00 0.00 0.00 86 1020.0
20181015083303 46 69 0.0 1.0 0.00 0.00 0.00 85 1019.9
20181015082730 46 69 0.0 1.0 0.00 0.00 0.00 85 1019.9
20181015082159 46 69 0.0 3.0 0.00 0.00 0.00 85 1020.0
20181015081627 46 69 0.0 3.0 0.00 0.00 0.00 85 1020.0
20181015081054 46 65 0.0 1.0 0.00 0.00 0.00 85 1020.0
20181015080522 46 65 0.0 1.0 0.00 0.00 0.00 84 1019.9
20181015080015 47 65 0.0 1.0 0.00 0.00 0.00 84 1019.9
20181015075510 47 65 0.0 2.0 0.00 0.00 0.00 83 1019.9
20181015074953 47 65 1.0 2.0 0.00 0.00 0.00 83 1019.8
20181015074450 47 65 1.0 2.0 0.00 0.00 0.00 83 1019.9
20181015073945 47 65 0.0 2.0 0.00 0.00 0.00 83 1019.9
20181015073444 47 80 0.0 0.0 0.00 0.00 0.00 83 1019.6
20181015072946 47 80 0.0 0.0 0.00 0.00 0.00 83 1019.5
20181015072440 47 80 0.0 0.0 0.00 0.00 0.00 83 1019.5
20181015071937 47 80 0.0 0.0 0.00 0.00 0.00 83 1019.6
20181015071406 47 80 1.0 2.0 0.00 0.00 0.00 83 1019.5
20181015070856 47 80 1.0 2.0 0.00 0.00 0.00 83 1019.5
20181015070348 47 84 0.0 2.0 0.00 0.00 0.00 84 1019.5
20181015065849 47 78 0.0 0.0 0.00 0.00 0.00 85 1019.5
20181015065318 47 78 0.0 0.0 0.00 0.00 0.00 85 1019.5
20181015064744 47 78 0.0 0.0 0.00 0.00 0.00 85 1019.5
20181015064245 47 78 0.0 0.0 0.00 0.00 0.00 85 1019.5
20181015063733 46 78 0.0 0.0 0.00 0.00 0.00 85 1019.5
20181015063201 46 78 0.0 0.0 0.00 0.00 0.00 85 1019.5
20181015062630 46 78 0.0 0.0 0.00 0.00 0.00 85 1019.5
20181015062058 46 78 0.0 0.0 0.00 0.00 0.00 84 1019.5
20181015061540 46 78 0.0 0.0 0.00 0.00 0.00 84 1019.5
20181015061035 46 78 0.0 0.0 0.00 0.00 0.00 83 1019.5
20181015060525 46 78 0.0 0.0 0.00 0.00 0.00 83 1019.5
20181015055949 46 78 0.0 0.0 0.00 0.00 0.00 83 1019.6
20181015055448 46 78 0.0 0.0 0.00 0.00 0.00 82 1019.5
20181015054946 46 78 0.0 0.0 0.00 0.00 0.00 82 1019.6
20181015054447 46 78 0.0 2.0 0.00 0.00 0.00 82 1019.6
20181015053946 46 78 0.0 2.0 0.00 0.00 0.00 82 1019.6
20181015053427 46 78 0.0 2.0 0.00 0.00 0.00 81 1019.5
20181015052853 47 78 1.0 2.0 0.00 0.00 0.00 80 1019.5
20181015052348 47 78 1.0 2.0 0.00 0.00 0.00 80 1019.5
20181015051836 47 78 1.0 2.0 0.00 0.00 0.00 80 1019.4
20181015051337 47 78 1.0 3.0 0.00 0.00 0.00 79 1019.4
20181015050816 47 78 1.0 3.0 0.00 0.00 0.00 79 1019.5
20181015050308 47 78 1.0 2.0 0.00 0.00 0.00 78 1019.5
20181015045804 48 78 1.0 2.0 0.00 0.00 0.00 78 1019.5
20181015045254 48 78 1.0 3.0 0.00 0.00 0.00 77 1019.5
20181015044754 48 78 1.0 3.0 0.00 0.00 0.00 76 1019.5
20181015044235 48 89 1.0 2.0 0.00 0.00 0.00 76 1019.5
20181015043730 48 83 1.0 4.0 0.00 0.00 0.00 76 1019.5
20181015043232 48 83 1.0 4.0 0.00 0.00 0.00 75 1019.5
20181015042730 48 107 1.0 4.0 0.00 0.00 0.00 75 1019.5
20181015042232 49 45 0.0 2.0 0.00 0.00 0.00 75 1019.5
20181015041719 49 56 0.0 3.0 0.00 0.00 0.00 76 1019.4
20181015041214 49 56 1.0 3.0 0.00 0.00 0.00 76 1019.4
20181015040714 49 130 1.0 2.0 0.00 0.00 0.00 74 1019.4
20181015040210 49 130 1.0 3.0 0.00 0.00 0.00 74 1019.5
20181015035712 50 96 0.0 3.0 0.00 0.00 0.00 73 1019.4
20181015035149 50 93 0.0 2.0 0.00 0.00 0.00 74 1019.4
20181015034648 50 93 0.0 2.0 0.00 0.00 0.00 74 1019.4
20181015034129 50 93 0.0 2.0 0.00 0.00 0.00 74 1019.3
20181015033626 50 93 0.0 1.0 0.00 0.00 0.00 73 1019.3
20181015033120 50 113 1.0 6.0 0.00 0.00 0.00 73 1019.3
20181015032617 50 150 1.0 6.0 0.00 0.00 0.00 73 1019.3
20181015032115 50 257 1.0 2.0 0.00 0.00 0.00 73 1019.3
20181015031616 50 257 1.0 3.0 0.00 0.00 0.00 73 1019.3
20181015031112 50 261 1.0 4.0 0.00 0.00 0.00 74 1019.3
20181015030613 50 142 1.0 4.0 0.00 0.00 0.00 74 1019.1
20181015030042 49 51 1.0 3.0 0.00 0.00 0.00 74 1019.1
20181015025512 49 146 1.0 3.0 0.00 0.00 0.00 75 1019.0
20181015024940 49 161 1.0 3.0 0.00 0.00 0.00 75 1019.0
20181015024416 49 170 1.0 3.0 0.00 0.00 0.00 75 1019.0
20181015023911 49 191 1.0 2.0 0.00 0.00 0.00 75 1019.0
20181015023405 49 184 1.0 2.0 0.00 0.00 0.00 76 1018.9
20181015022904 49 108 1.0 4.0 0.00 0.00 0.00 76 1018.8
20181015022405 48 146 1.0 4.0 0.00 0.00 0.00 77 1018.8
20181015021856 48 44 1.0 2.0 0.00 0.00 0.00 77 1018.8
20181015021352 48 42 1.0 2.0 0.00 0.00 0.00 77 1018.6
20181015020855 48 45 0.0 2.0 0.00 0.00 0.00 77 1018.8
20181015020352 48 45 0.0 2.0 0.00 0.00 0.00 76 1018.6
20181015015839 49 45 1.0 2.0 0.00 0.00 0.00 76 1018.6
20181015015325 49 45 1.0 2.0 0.00 0.00 0.00 75 1018.5
20181015014815 49 46 1.0 3.0 0.00 0.00 0.00 75 1018.5
20181015014317 49 46 1.0 7.0 0.00 0.00 0.00 76 1018.4
20181015013748 48 126 1.0 7.0 0.00 0.00 0.00 76 1018.4
20181015013246 48 149 1.0 3.0 0.00 0.00 0.00 77 1018.3
20181015012746 48 109 0.0 2.0 0.00 0.00 0.00 77 1018.3
20181015012242 48 109 1.0 2.0 0.00 0.00 0.00 77 1018.1
20181015011730 48 109 1.0 2.0 0.00 0.00 0.00 77 1018.0
20181015011230 49 109 1.0 2.0 0.00 0.00 0.00 76 1018.1
20181015010727 49 112 0.0 2.0 0.00 0.00 0.00 75 1018.0
20181015010226 49 112 0.0 2.0 0.00 0.00 0.00 73 1017.8
20181015005727 50 112 0.0 2.0 0.00 0.00 0.00 71 1017.8
20181015005214 51 112 0.0 2.0 0.00 0.00 0.00 70 1017.7
20181015004714 51 112 1.0 3.0 0.00 0.00 0.00 69 1017.7
20181015004214 52 112 2.0 7.0 0.00 0.00 0.00 65 1017.5
20181015003642 52 254 2.0 7.0 0.00 0.00 0.00 65 1017.5
20181015003138 52 242 1.0 5.0 0.00 0.00 0.00 65 1017.4
20181015002640 53 109 1.0 4.0 0.00 0.00 0.00 66 1017.4
20181015002138 53 61 0.0 2.0 0.00 0.00 0.00 65 1017.3
20181015001640 53 64 1.0 3.0 0.00 0.00 0.00 65 1017.3
20181015001137 53 85 2.0 6.0 0.00 0.00 0.00 64 1017.3
20181015000629 53 253 2.0 7.0 0.00 0.00 0.00 64 1017.4
20181015000125 53 281 2.0 7.0 0.00 0.00 0.00 63 1017.3
20181014235622 54 203 3.0 7.0 0.00 0.00 0.00 62 1017.3
20181014235122 54 221 2.0 7.0 0.00 0.00 0.00 61 1017.2
20181014234622 54 217 2.0 7.0 0.00 0.00 0.00 62 1017.2
20181014234122 54 144 2.0 7.0 0.00 0.00 0.00 62 1017.2
20181014233610 54 246 3.0 7.0 0.00 0.00 0.00 62 1017.2
20181014233110 54 243 3.0 7.0 0.00 0.00 0.00 61 1017.2
20181014232606 54 253 2.0 6.0 0.00 0.00 0.00 62 1017.2
20181014232105 54 236 2.0 6.0 0.00 0.00 0.00 61 1017.2